TimeEDT,TemperatureF,Dew PointF,Humidity,Sea Level PressureIn,VisibilityMPH,Wind Direction,Wind SpeedMPH,Gust SpeedMPH,PrecipitationIn,Events,Conditions,WindDirDegrees,DateUTC
12:53 AM,30.0,12.9,49,30.08,10.0,NE,3.5,-,N/A,,Clear,50,2013-03-22 04:53:00
1:53 AM,30.0,12.9,49,30.07,10.0,ENE,4.6,-,N/A,,Clear,60,2013-03-22 05:53:00
2:53 AM,28.9,12.0,49,30.09,10.0,Calm,Calm,-,N/A,,Clear,0,2013-03-22 06:53:00
3:53 AM,28.0,14.0,56,30.08,10.0,Calm,Calm,-,N/A,,Clear,0,2013-03-22 07:53:00
4:53 AM,27.0,15.1,61,30.07,10.0,Calm,Calm,-,N/A,,Clear,0,2013-03-22 08:53:00
5:53 AM,27.0,16.0,63,30.08,10.0,Calm,Calm,-,N/A,,Clear,0,2013-03-22 09:53:00
6:53 AM,27.0,17.1,66,30.10,10.0,Calm,Calm,-,N/A,,Overcast,0,2013-03-22 10:53:00
7:53 AM,27.0,17.1,66,30.11,10.0,Calm,Calm,-,N/A,,Overcast,0,2013-03-22 11:53:00
8:53 AM,28.9,16.0,58,30.12,10.0,Calm,Calm,-,N/A,,Overcast,0,2013-03-22 12:53:00
9:53 AM,30.9,17.1,57,30.14,10.0,ENE,5.8,-,N/A,,Overcast,70,2013-03-22 13:53:00
10:53 AM,33.1,16.0,50,30.14,10.0,Calm,Calm,-,N/A,,Overcast,0,2013-03-22 14:53:00
11:53 AM,36.0,16.0,44,30.12,10.0,North,3.5,-,N/A,,Overcast,10,2013-03-22 15:53:00
12:53 PM,39.9,15.1,36,30.10,10.0,Calm,Calm,-,N/A,,Mostly Cloudy,0,2013-03-22 16:53:00
1:53 PM,42.1,15.1,34,30.09,10.0,Calm,Calm,-,N/A,,Overcast,0,2013-03-22 17:53:00
2:53 PM,44.1,14.0,30,30.07,10.0,Calm,Calm,-,N/A,,Overcast,0,2013-03-22 18:53:00
3:53 PM,45.0,15.1,30,30.06,10.0,Calm,Calm,-,N/A,,Overcast,0,2013-03-22 19:53:00
4:53 PM,45.0,16.0,31,30.05,10.0,Calm,Calm,-,N/A,,Overcast,0,2013-03-22 20:53:00
5:53 PM,45.0,17.1,33,30.05,10.0,Calm,Calm,-,N/A,,Overcast,0,2013-03-22 21:53:00
6:53 PM,45.0,18.0,34,30.06,10.0,Calm,Calm,-,N/A,,Overcast,0,2013-03-22 22:53:00
7:53 PM,44.1,19.0,37,30.06,10.0,Calm,Calm,-,N/A,,Overcast,0,2013-03-22 23:53:00
8:53 PM,44.1,19.0,37,30.07,10.0,Calm,Calm,-,N/A,,Overcast,0,2013-03-23 00:53:00
9:53 PM,43.0,26.1,51,30.08,10.0,Calm,Calm,-,0.00,,Overcast,0,2013-03-23 01:53:00
10:53 PM,42.1,27.0,55,30.08,10.0,Calm,Calm,-,N/A,,Overcast,0,2013-03-23 02:53:00
11:53 PM,42.1,27.0,55,30.07,10.0,Calm,Calm,-,N/A,,Overcast,0,2013-03-23 03:53:00